Wetbulb
76.64 76.65 76.63 74.44 63.22 61.60 56.46 59.99 64.43 63.57 64.48 68.53 69.09 66.92 65.65 66.36 64.41 58.76 72.80 73.96 74.48 75.60 76.73 77.24 78.13 78.51 77.25 76.96 76.74 76.98 76.96 76.60 76.46 76.47 76.28 75.95 76.83 76.16 75.70 76.22 75.54 75.70 75.81 75.76 76.17 76.42 76.48 76.65 76.84
73.99 75.65 70.72 67.52 59.53 54.57 56.23 62.05 62.85 65.34 68.01 69.54 69.27 68.01 66.29 64.44 69.90 70.32 71.22 73.98 74.83 75.78 75.83 76.31 78.01 78.93 77.93 77.07 77.02 76.63 76.50 76.52 76.33 76.14 76.09 76.50 76.00 75.92 75.65 75.73 75.62 75.79 75.79 76.15 76.31 76.54 76.95 77.20 77.45
75.51 73.84 64.39 61.49 58.26 53.65 56.00 63.55 64.95 67.55 70.38 69.58 67.30 69.22 67.65 65.77 70.26 70.91 73.47 74.17 74.64 74.86 75.28 76.04 78.76 79.08 78.29 77.92 77.60 76.96 76.60 76.50 76.11 75.92 75.90 76.30 76.23 75.51 75.34 75.20 75.53 75.87 76.37 76.93 77.34 77.79 78.07 77.93 78.18
74.70 68.71 68.24 59.35 57.88 61.58 61.53 64.90 66.14 68.03 68.36 69.02 68.31 65.24 69.08 71.63 70.57 72.77 74.14 74.32 73.95 74.87 75.09 77.82 79.15 77.86 77.93 78.27 77.60 76.98 76.66 76.50 75.95 75.76 76.12 75.67 75.45 75.28 74.86 75.14 75.87 76.12 77.04 77.92 78.28 78.75 78.67 78.35 78.46
71.24 67.55 61.31 58.02 59.77 62.00 63.85 66.89 67.81 67.61 67.86 67.77 68.48 64.74 66.27 71.22 72.72 73.31 73.36 74.40 73.54 74.49 76.14 76.46 78.68 78.79 78.75 78.15 77.72 77.31 76.90 76.36 75.78 75.76 75.37 75.20 74.81 74.75 75.00 75.23 76.54 76.98 77.70 78.42 78.89 79.19 79.37 78.68 78.91
67.04 67.70 58.75 56.75 60.43 62.66 64.72 66.85 68.71 67.58 67.44 67.77 66.59 65.68 66.33 72.10 71.94 73.02 74.53 74.12 74.51 74.81 76.09 77.24 79.08 79.47 79.15 78.19 77.83 77.63 77.15 76.11 75.73 75.34 75.26 74.59 74.47 74.91 75.62 75.75 76.34 76.93 78.24 79.35 79.25 79.25 79.33 78.86 78.68
64.45 61.04 57.52 59.08 59.74 61.04 64.29 69.68 67.84 67.30 67.31 67.06 69.18 64.63 67.14 69.70 73.01 74.46 74.69 74.59 74.56 75.44 75.71 76.20 76.42 77.58 78.68 78.73 78.34 77.55 76.56 75.95 75.92 75.45 75.01 74.62 75.10 75.54 76.59 77.40 77.46 77.54 78.75 79.45 79.67 80.04 79.52 79.19 76.73
63.97 63.14 57.21 59.32 58.76 59.16 65.12 66.99 69.87 68.82 67.77 71.33 70.51 63.92 63.95 70.38 73.50 74.53 74.40 73.86 74.62 74.86 75.36 75.79 75.95 76.41 76.33 76.14 77.61 76.61 76.06 76.26 75.79 75.73 75.45 75.87 76.23 76.78 77.48 78.66 78.36 79.05 79.92 80.26 79.94 80.10 78.80 78.13 76.50
68.94 60.44 56.61 58.59 60.35 61.40 66.04 64.46 67.65 71.15 69.75 70.53 71.07 68.34 69.80 71.79 73.30 72.99 72.36 72.67 72.98 73.97 74.71 75.81 76.15 76.03 75.17 74.52 74.59 75.69 76.56 76.04 76.72 76.47 76.29 77.19 74.41 74.81 75.95 78.07 79.03 80.17 80.26 80.18 80.57 80.08 78.32 76.67 78.31
65.31 60.30 60.33 63.92 64.50 63.00 66.21 65.87 66.89 66.85 68.24 68.19 68.52 70.15 71.04 71.89 71.73 70.88 70.96 70.52 71.87 71.78 72.90 75.29 75.20 75.35 73.95 74.62 73.54 74.05 74.39 74.21 74.64 74.69 74.38 74.46 74.68 75.78 76.27 77.20 79.53 79.67 79.46 80.03 80.35 80.49 76.97 75.83 75.98
65.34 61.39 64.64 64.94 66.13 66.87 65.28 66.89 67.88 66.21 65.79 67.77 66.66 68.02 69.76 70.38 70.71 70.30 70.82 71.19 71.46 71.84 73.44 74.42 74.54 74.09 72.87 74.33 74.68 74.51 75.10 73.95 75.00 73.81 73.34 73.76 74.73 74.50 74.24 74.18 73.44 73.56 75.48 73.34 75.73 74.90 75.41 74.66 75.50
62.72 65.43 64.50 65.33 67.60 66.52 65.37 66.76 64.66 64.99 67.57 70.97 69.97 70.03 70.11 69.24 69.05 69.94 70.57 70.39 71.56 71.88 72.61 74.14 73.92 73.99 74.13 75.04 73.81 74.21 71.96 71.15 72.30 71.33 73.20 74.15 72.61 72.33 73.51 73.61 73.78 73.40 72.88 72.09 73.02 73.89 74.30 75.00 74.77
63.34 63.46 65.41 65.97 66.76 65.67 67.67 65.74 64.86 65.30 70.98 71.75 70.97 70.65 69.73 69.62 70.07 70.94 71.35 72.23 72.37 71.84 72.90 72.49 73.41 73.68 74.42 73.73 72.08 72.42 68.59 70.60 71.33 70.37 73.75 75.32 72.16 71.73 73.76 73.12 73.86 73.63 72.00 72.28 74.69 73.89 73.12 74.10 74.08
65.67 65.97 64.50 65.02 65.37 65.84 65.68 65.99 65.82 66.04 69.21 70.20 70.19 69.18 69.64 70.07 70.54 70.51 70.87 71.80 71.64 72.81 73.37 71.57 72.75 73.71 73.62 71.60 71.09 71.71 70.31 71.85 71.21 70.53 74.70 75.33 72.98 72.68 74.06 74.54 73.20 72.40 72.88 72.91 73.84 73.95 74.55 73.39 74.72
66.30 62.17 65.09 65.41 65.87 65.52 66.52 64.00 63.78 66.76 68.41 67.48 67.76 69.00 69.89 70.26 70.82 70.48 71.31 71.25 72.64 72.59 73.40 71.07 73.44 73.34 72.38 72.30 71.74 71.69 70.54 71.21 69.82 70.25 72.96 74.62 72.57 70.89 73.27 71.78 72.12 71.60 74.31 73.85 74.07 73.84 74.55 74.14 74.68
62.76 61.59 56.79 62.84 64.39 66.45 64.35 58.52 65.56 67.02 67.14 66.59 67.13 67.77 69.90 70.42 70.98 71.43 72.08 72.17 72.61 72.78 72.55 72.26 74.59 73.32 73.51 72.88 72.45 72.10 71.48 70.87 69.47 70.88 72.19 73.52 74.28 69.72 73.78 72.87 73.35 73.09 74.51 73.13 73.57 73.24 73.09 73.17 73.41
62.27 53.57 56.85 59.39 62.27 64.09 63.09 59.36 65.38 67.29 66.31 65.82 66.42 67.27 68.01 69.09 70.60 71.90 72.67 72.50 72.80 72.65 72.65 71.98 73.07 72.97 73.66 73.59 74.02 73.17 71.31 70.70 70.36 70.54 72.68 72.44 74.25 74.70 73.85 73.82 73.11 73.39 75.09 72.95 72.77 73.30 72.97 72.13 72.33
55.57 56.74 59.01 57.85 62.63 64.16 61.07 60.46 65.45 66.31 66.65 65.87 66.51 66.83 67.20 67.60 69.90 71.91 72.33 72.95 73.00 72.92 73.00 72.98 73.32 72.83 73.28 74.34 73.72 73.19 71.31 71.14 71.49 71.40 72.66 73.44 73.50 73.78 73.85 72.37 72.90 73.09 74.14 73.07 72.18 71.99 72.85 73.04 71.77
61.87 59.57 59.14 60.75 64.06 62.89 60.26 60.34 62.37 65.65 65.83 65.75 65.79 66.27 66.84 67.85 69.37 71.83 72.50 72.90 72.61 73.50 73.14 73.02 72.79 72.34 73.56 72.94 72.13 70.93 70.61 70.58 70.35 72.65 72.02 73.41 72.78 73.70 73.66 72.69 72.69 73.19 71.87 72.12 71.90 72.11 71.24 71.94 72.82
60.85 58.33 58.18 62.47 64.38 61.33 60.50 59.49 61.85 64.67 64.67 65.47 66.42 66.54 66.97 67.78 68.86 69.64 70.13 72.34 72.89 72.87 73.19 73.05 73.04 73.63 73.09 72.67 72.39 72.44 72.33 72.14 72.88 72.79 72.52 73.58 72.97 73.87 73.36 73.51 72.59 73.39 73.05 72.84 71.88 71.21 71.26 71.08 72.41
59.12 58.59 57.82 58.06 61.45 60.60 59.49 57.61 59.69 63.54 64.25 64.99 66.84 68.41 68.14 67.78 68.13 69.11 69.54 71.45 72.61 72.42 72.63 73.24 73.25 73.82 73.57 73.24 73.29 73.12 72.78 72.28 72.35 72.11 72.48 72.67 72.95 73.04 72.92 73.79 74.10 72.84 73.18 71.41 71.21 70.50 71.04 69.41 71.23
55.62 62.49 61.33 61.03 56.80 50.39 57.59 49.07 55.48 60.29 61.33 62.71 61.75 63.80 67.75 68.08 69.15 69.51 69.32 69.78 71.67 72.55 73.27 73.82 74.22 73.90 73.46 73.87 72.77 71.84 70.72 69.60 70.10 70.89 71.67 72.20 73.14 72.45 72.47 73.27 73.57 73.39 73.23 71.25 71.55 71.92 70.29 71.27 69.41
57.86 61.95 60.69 60.69 56.42 52.71 53.66 49.65 54.43 58.55 57.85 58.66 61.59 64.39 65.32 68.52 68.92 69.32 69.74 70.38 70.69 73.12 73.45 74.07 73.98 74.14 73.79 74.30 73.30 72.72 71.26 71.27 71.90 71.88 71.75 72.91 72.83 73.00 72.67 72.50 73.74 73.02 71.97 71.21 73.10 72.12 71.38 70.65 70.83
61.56 60.45 58.63 58.29 53.34 45.77 52.01 50.33 52.71 55.17 56.67 59.66 62.03 63.67 65.07 68.66 69.09 70.00 70.77 71.37 71.22 72.55 73.47 74.34 74.11 74.11 74.24 74.02 73.68 72.41 71.70 71.48 71.36 71.19 71.00 71.22 71.09 72.20 73.35 73.40 73.39 72.72 71.55 71.24 73.28 72.02 72.08 71.48 72.24
56.92 54.23 47.74 44.97 46.45 44.82 53.07 50.80 53.98 57.63 60.15 61.32 61.39 63.27 64.53 66.99 68.80 69.20 69.64 70.43 71.29 71.53 72.02 73.65 73.40 73.87 74.45 73.90 73.84 73.85 72.98 72.54 71.63 71.30 71.04 70.44 70.50 71.12 71.58 72.89 72.70 71.92 71.72 72.70 73.82 73.18 72.42 71.37 71.72
53.23 55.21 49.98 43.00 44.11 47.17 53.80 49.78 52.65 60.28 62.43 61.98 63.32 64.45 65.39 65.52 69.52 69.45 69.96 70.56 71.29 71.87 72.23 73.65 73.22 73.16 74.71 74.37 74.23 73.70 74.56 73.90 72.59 72.65 71.58 71.13 71.26 71.56 71.86 72.61 72.37 72.03 72.31 73.54 73.22 73.12 72.62 71.79 72.72
52.51 50.59 53.33 48.32 47.88 45.30 49.80 52.97 57.47 59.55 60.54 59.60 61.20 62.87 63.70 64.46 68.84 69.87 70.72 71.03 71.54 72.01 72.44 73.19 73.71 74.19 74.92 75.04 74.70 74.66 74.14 74.22 73.38 72.97 72.13 71.93 71.76 72.34 72.50 72.94 71.99 72.08 72.52 72.26 70.91 72.69 72.09 73.03 72.48
53.80 56.67 49.54 48.22 42.61 42.74 49.22 49.50 50.23 54.98 57.65 60.34 59.91 59.68 62.40 64.83 64.15 69.92 70.92 71.24 71.68 72.35 72.28 73.77 74.73 74.60 75.05 75.05 75.21 75.08 74.46 74.51 73.71 73.59 72.23 72.43 72.86 73.24 72.78 72.69 71.89 71.90 71.85 71.55 71.00 72.86 73.23 72.66 72.48
53.75 51.37 50.97 50.55 48.58 44.18 42.32 47.72 56.85 57.49 58.29 57.84 58.69 60.73 60.90 64.69 64.81 65.91 70.29 71.58 72.15 72.61 72.49 73.47 74.82 74.56 75.00 75.28 75.45 75.32 74.90 74.45 73.94 73.24 73.23 72.58 72.85 73.15 72.54 73.23 73.47 73.07 72.65 72.21 71.45 72.90 73.28 73.00 71.56
55.61 54.19 51.23 46.73 46.93 47.67 47.09 47.91 58.17 58.87 59.14 59.26 60.60 60.32 61.03 66.00 66.05 66.77 67.68 71.62 72.17 72.10 72.51 74.09 74.58 74.67 75.36 75.52 75.17 75.33 75.22 74.86 73.98 73.42 73.22 73.80 73.19 73.80 72.99 72.88 72.96 72.52 73.32 73.30 72.94 72.36 73.86 72.81 71.30
MSLP
1008.10 1008.19 1007.92 1008.12 1009.34 1009.04 1009.53 1009.97 1008.68 1007.52 1007.30 1006.77 1007.11 1007.85 1008.80 1008.82 1009.04 1011.53 1012.22 1013.11 1013.88 1014.74 1015.22 1015.62 1015.93 1016.13 1016.41 1016.62 1016.87 1017.01 1017.10 1017.27 1017.31 1017.30 1017.33 1017.35 1017.32 1017.37 1017.28 1017.20 1017.19 1017.24 1017.12 1016.87 1016.73 1016.61 1016.46 1016.40 1016.29
1007.98 1007.74 1008.37 1008.20 1008.19 1007.76 1008.32 1008.07 1006.92 1006.70 1006.16 1006.48 1007.05 1007.99 1008.68 1009.69 1009.51 1010.76 1012.07 1013.08 1013.73 1014.55 1015.19 1015.71 1016.02 1016.18 1016.45 1016.78 1016.99 1017.10 1017.16 1017.27 1017.40 1017.45 1017.46 1017.47 1017.48 1017.48 1017.36 1017.25 1017.31 1017.19 1016.97 1016.76 1016.58 1016.44 1016.40 1016.31 1016.12
1008.31 1007.86 1009.26 1009.18 1008.70 1006.89 1006.26 1005.96 1005.13 1005.13 1005.14 1005.75 1006.94 1007.65 1008.57 1010.11 1010.43 1010.70 1012.10 1012.99 1013.82 1014.67 1015.35 1015.72 1016.05 1016.27 1016.48 1016.77 1017.04 1017.16 1017.26 1017.40 1017.50 1017.51 1017.51 1017.54 1017.52 1017.50 1017.46 1017.36 1017.26 1017.06 1016.84 1016.66 1016.38 1016.29 1016.30 1016.09 1016.03
1008.54 1008.57 1009.21 1009.14 1007.84 1005.84 1004.54 1004.22 1003.66 1004.50 1005.76 1006.46 1007.23 1008.46 1008.93 1009.23 1010.02 1010.97 1012.05 1012.86 1013.83 1014.78 1015.50 1015.84 1016.08 1016.40 1016.62 1016.77 1016.97 1017.23 1017.31 1017.37 1017.45 1017.55 1017.49 1017.52 1017.49 1017.52 1017.51 1017.40 1017.27 1017.02 1016.75 1016.45 1016.30 1016.27 1016.12 1016.03 1015.82
1010.28 1011.25 1010.75 1008.99 1006.79 1005.36 1004.01 1003.53 1003.45 1004.60 1006.04 1007.19 1007.77 1009.45 1009.55 1009.85 1010.36 1011.20 1011.90 1012.82 1013.86 1014.91 1015.58 1015.98 1016.17 1016.49 1016.70 1016.90 1017.01 1017.15 1017.36 1017.48 1017.53 1017.56 1017.55 1017.52 1017.51 1017.59 1017.54 1017.45 1017.26 1016.93 1016.68 1016.41 1016.44 1016.25 1015.92 1015.84 1015.77
1010.05 1011.95 1010.99 1009.09 1006.77 1005.48 1004.06 1003.36 1003.86 1005.14 1006.65 1007.87 1008.48 1009.14 1009.82 1009.92 1010.40 1011.23 1012.11 1013.16 1013.80 1014.99 1015.64 1016.02 1016.23 1016.49 1016.74 1016.94 1017.14 1017.22 1017.34 1017.46 1017.51 1017.54 1017.56 1017.57 1017.51 1017.63 1017.59 1017.48 1017.24 1016.95 1016.72 1016.42 1016.43 1016.24 1015.88 1016.18 1016.07
1008.95 1010.58 1010.46 1009.01 1007.08 1005.58 1004.36 1003.67 1004.00 1005.46 1006.68 1007.65 1008.41 1009.44 1010.02 1010.28 1010.70 1011.53 1012.35 1013.23 1014.02 1014.82 1015.53 1016.00 1016.29 1016.51 1016.73 1017.02 1017.21 1017.32 1017.40 1017.48 1017.44 1017.47 1017.52 1017.54 1017.57 1017.56 1017.44 1017.47 1017.31 1016.91 1016.51 1016.29 1016.38 1016.42 1016.16 1016.01 1016.25
1009.32 1009.98 1009.55 1008.78 1007.13 1005.07 1004.01 1003.58 1004.26 1005.24 1006.38 1007.24 1007.70 1009.57 1010.03 1010.40 1010.82 1011.89 1012.79 1013.66 1014.19 1015.05 1015.54 1016.05 1016.34 1016.59 1016.82 1017.13 1017.41 1017.46 1017.51 1017.50 1017.48 1017.38 1017.41 1017.42 1017.50 1017.58 1017.33 1017.43 1017.12 1017.02 1016.89 1016.56 1016.52 1016.52 1016.25 1016.23 1016.24
1009.21 1009.78 1009.27 1007.53 1005.79 1004.17 1003.55 1003.60 1004.07 1004.78 1006.24 1006.39 1007.32 1008.52 1009.78 1010.51 1010.84 1012.04 1013.08 1014.03 1014.53 1015.18 1015.73 1015.99 1016.43 1016.79 1017.06 1017.23 1017.49 1017.60 1017.64 1017.57 1017.45 1017.34 1017.28 1017.33 1017.50 1017.61 1017.48 1017.19 1016.97 1016.92 1016.67 1016.42 1016.31 1016.65 1016.46 1016.30 1016.38
1008.85 1007.79 1005.71 1004.52 1004.11 1003.40 1003.34 1003.47 1004.19 1004.73 1005.85 1007.13 1008.20 1009.30 1009.96 1010.58 1011.32 1012.05 1013.04 1013.92 1014.61 1015.13 1015.59 1016.04 1016.46 1016.80 1017.08 1017.24 1017.50 1017.80 1017.83 1017.76 1017.59 1017.38 1017.31 1017.44 1017.38 1017.25 1017.40 1017.47 1016.96 1016.48 1016.67 1016.33 1016.40 1016.56 1016.73 1016.51 1016.49
1007.44 1005.60 1003.98 1003.65 1003.28 1002.77 1002.88 1003.58 1004.09 1004.81 1006.13 1007.00 1008.16 1009.26 1010.01 1010.88 1011.59 1012.17 1012.89 1013.31 1014.08 1014.73 1015.49 1016.06 1016.36 1016.77 1017.07 1017.37 1017.62 1017.82 1017.86 1017.82 1017.63 1017.52 1017.35 1017.20 1016.95 1017.07 1017.64 1017.69 1017.17 1016.96 1016.70 1016.59 1016.81 1016.77 1017.24 1016.72 1016.81
1006.72 1004.09 1002.86 1002.40 1002.41 1002.68 1003.20 1003.58 1004.36 1004.76 1005.69 1006.85 1008.08 1009.15 1009.99 1010.75 1011.63 1012.30 1012.83 1013.21 1013.75 1014.39 1015.22 1015.85 1016.17 1016.67 1016.97 1017.27 1017.59 1017.80 1018.02 1017.89 1017.65 1017.66 1017.39 1017.35 1017.34 1017.41 1017.70 1017.52 1017.54 1017.64 1017.10 1016.90 1017.07 1017.03 1017.29 1017.20 1017.28
1004.69 1003.40 1002.80 1002.25 1002.46 1002.66 1003.14 1003.72 1004.39 1004.91 1005.93 1006.96 1008.15 1009.26 1010.16 1010.89 1011.42 1012.12 1012.39 1012.93 1013.48 1014.14 1014.62 1015.44 1015.95 1016.58 1016.84 1017.23 1017.53 1017.75 1017.95 1017.85 1017.77 1017.80 1017.60 1017.23 1017.42 1017.38 1017.61 1017.54 1017.33 1017.18 1016.91 1016.86 1017.17 1017.20 1017.51 1017.19 1017.52
1005.16 1005.17 1003.20 1002.69 1002.61 1002.88 1003.42 1004.23 1004.51 1005.24 1005.90 1007.12 1008.14 1009.16 1009.95 1010.51 1010.72 1011.38 1011.98 1012.58 1013.16 1013.83 1014.18 1014.87 1015.59 1015.96 1016.56 1017.09 1017.33 1017.63 1017.75 1017.66 1017.81 1017.89 1017.47 1017.31 1017.36 1017.43 1017.60 1017.30 1017.33 1017.09 1016.96 1017.24 1017.31 1017.52 1017.52 1017.39 1017.34
1005.76 1005.31 1004.11 1003.75 1003.92 1003.43 1003.59 1004.44 1004.76 1004.98 1005.65 1006.77 1007.79 1008.89 1009.41 1009.81 1010.57 1011.03 1011.49 1011.81 1012.48 1013.17 1013.75 1014.54 1015.17 1015.56 1016.27 1016.75 1017.00 1017.34 1017.59 1017.58 1017.78 1017.76 1017.28 1017.14 1017.38 1017.49 1017.74 1017.70 1017.42 1017.57 1017.28 1017.47 1017.37 1017.41 1017.72 1017.61 1017.61
1006.75 1006.84 1006.04 1005.10 1004.74 1004.19 1003.82 1004.50 1004.71 1004.80 1005.43 1006.40 1006.94 1007.65 1008.82 1009.40 1009.75 1010.49 1011.00 1011.45 1011.93 1012.42 1013.10 1013.93 1014.57 1015.17 1015.81 1016.32 1016.61 1016.98 1017.26 1017.40 1017.51 1017.65 1017.37 1017.06 1017.27 1017.38 1017.67 1017.68 1017.53 1017.96 1017.40 1017.46 1017.71 1018.02 1018.27 1018.42 1018.35
1007.32 1007.54 1006.82 1006.32 1004.61 1004.82 1004.12 1004.12 1004.14 1004.53 1005.02 1005.83 1006.46 1006.98 1007.43 1008.35 1009.20 1009.72 1010.31 1010.90 1011.45 1012.14 1012.88 1013.59 1014.02 1014.70 1015.20 1015.71 1016.24 1016.59 1016.88 1017.12 1017.25 1017.48 1017.38 1017.20 1017.30 1017.46 1017.77 1017.94 1017.92 1018.20 1017.79 1017.75 1017.86 1018.26 1018.54 1018.85 1018.98
1006.50 1007.17 1006.68 1007.04 1005.26 1004.04 1003.70 1003.43 1003.47 1003.99 1004.38 1004.90 1005.69 1006.31 1006.98 1007.60 1008.16 1008.78 1009.36 1010.07 1010.94 1011.81 1012.64 1013.34 1014.06 1014.41 1014.90 1015.57 1016.11 1016.45 1016.78 1016.83 1017.06 1017.19 1017.30 1017.19 1017.35 1017.57 1017.92 1017.87 1018.06 1018.13 1018.41 1018.32 1018.30 1018.45 1018.82 1018.82 1019.24
1004.92 1005.51 1005.94 1005.57 1004.48 1004.35 1003.70 1003.30 1002.90 1003.01 1003.59 1004.20 1004.94 1005.59 1006.13 1006.68 1007.15 1008.02 1008.72 1009.52 1010.50 1011.25 1012.19 1012.99 1013.82 1014.48 1014.97 1015.48 1015.96 1016.49 1016.83 1016.78 1017.00 1016.88 1017.04 1017.17 1017.25 1017.54 1017.88 1018.00 1018.09 1018.12 1018.49 1018.53 1018.52 1018.64 1019.11 1019.33 1019.42
1004.22 1004.41 1004.72 1004.16 1003.77 1003.77 1003.48 1003.20 1002.49 1002.26 1002.50 1002.81 1003.56 1004.54 1005.09 1005.80 1006.60 1007.36 1008.04 1008.97 1010.02 1010.76 1011.72 1012.69 1013.42 1014.19 1014.68 1015.16 1015.48 1016.03 1016.40 1016.58 1016.48 1016.53 1016.83 1017.07 1017.28 1017.54 1017.80 1018.04 1018.19 1018.11 1018.52 1018.41 1018.52 1018.79 1019.21 1019.43 1019.34
1003.22 1003.57 1003.69 1003.49 1003.29 1003.20 1003.44 1003.16 1002.69 1001.97 1001.91 1001.98 1002.28 1002.92 1003.70 1004.51 1005.48 1006.34 1007.32 1008.52 1009.72 1010.72 1011.39 1012.19 1012.93 1013.73 1014.34 1014.86 1015.30 1015.76 1016.14 1016.38 1016.44 1016.62 1016.83 1016.93 1017.16 1017.47 1017.68 1017.94 1018.07 1018.21 1018.48 1018.66 1018.72 1018.93 1019.14 1019.57 1019.47
1002.48 1002.77 1003.27 1003.59 1003.86 1004.25 1003.92 1004.42 1003.40 1001.68 1002.16 1002.50 1002.45 1003.08 1003.57 1003.78 1004.81 1005.64 1006.74 1007.90 1009.00 1009.93 1010.77 1011.58 1012.53 1013.36 1014.03 1014.45 1015.06 1015.61 1015.93 1016.38 1016.41 1016.53 1016.67 1016.85 1016.96 1017.29 1017.51 1017.78 1017.94 1018.11 1018.34 1018.65 1018.72 1018.88 1019.01 1019.32 1019.63
1002.03 1002.37 1003.10 1003.65 1004.40 1005.12 1005.39 1005.66 1004.42 1003.71 1003.85 1003.89 1002.75 1002.00 1002.97 1003.38 1003.94 1005.01 1006.00 1007.04 1008.17 1009.27 1010.20 1010.97 1011.87 1012.86 1013.53 1014.14 1014.62 1015.16 1015.68 1015.96 1016.05 1016.25 1016.56 1016.73 1016.80 1016.92 1017.27 1017.44 1017.72 1017.96 1018.18 1018.46 1018.56 1018.70 1018.93 1019.02 1019.30
1001.44 1002.51 1003.37 1004.20 1005.32 1006.81 1007.37 1007.60 1005.84 1005.71 1004.80 1004.05 1002.75 1002.23 1002.64 1003.07 1003.92 1004.85 1005.68 1006.57 1007.50 1008.51 1009.59 1010.51 1011.33 1012.22 1012.96 1013.61 1014.19 1014.64 1015.24 1015.62 1015.98 1016.26 1016.52 1016.71 1016.82 1016.93 1016.89 1017.08 1017.33 1017.63 1017.90 1018.27 1018.35 1018.34 1018.64 1018.77 1018.93
1001.42 1003.05 1004.45 1005.82 1006.74 1007.92 1008.48 1008.20 1007.82 1006.72 1005.87 1004.86 1004.15 1003.09 1002.07 1002.16 1003.57 1004.50 1005.17 1005.88 1006.76 1007.71 1008.57 1009.69 1010.71 1011.67 1012.30 1013.02 1013.61 1014.10 1014.58 1015.04 1015.46 1015.81 1016.22 1016.49 1016.68 1016.73 1016.71 1016.83 1017.24 1017.47 1017.55 1017.78 1017.89 1018.13 1018.35 1018.47 1018.53
1001.76 1003.10 1004.61 1005.79 1007.29 1008.05 1008.83 1009.06 1007.57 1007.34 1005.73 1004.40 1002.64 1003.00 1002.13 1001.81 1002.51 1003.35 1004.15 1004.95 1005.87 1006.99 1007.98 1008.93 1009.95 1010.85 1011.60 1012.32 1012.89 1013.51 1013.94 1014.46 1014.92 1015.25 1015.60 1015.92 1016.11 1016.27 1016.41 1016.55 1016.78 1017.05 1017.28 1017.45 1017.64 1017.89 1018.06 1018.13 1018.17
1002.16 1003.23 1003.93 1005.38 1006.73 1008.25 1009.32 1010.22 1008.73 1006.75 1006.42 1005.30 1003.53 1002.71 1003.09 1002.35 1002.22 1002.75 1003.50 1004.36 1005.39 1006.45 1007.27 1008.05 1009.24 1010.17 1010.95 1011.64 1012.38 1013.02 1013.55 1013.94 1014.42 1014.78 1015.08 1015.40 1015.60 1015.86 1016.16 1016.21 1016.63 1016.74 1017.00 1017.26 1017.48 1017.71 1017.76 1017.90 1017.85
1001.73 1003.71 1004.80 1006.61 1008.60 1009.77 1010.94 1011.51 1011.11 1009.67 1007.49 1006.17 1003.66 1003.35 1003.48 1003.17 1001.36 1002.17 1002.98 1003.79 1004.75 1005.67 1006.68 1007.66 1008.61 1009.56 1010.32 1011.00 1011.72 1012.39 1013.01 1013.51 1013.93 1014.32 1014.63 1014.90 1015.20 1015.48 1015.77 1016.02 1016.39 1016.65 1016.97 1017.15 1017.37 1017.49 1017.47 1017.59 1017.56
1002.42 1003.96 1005.78 1007.41 1009.12 1010.09 1010.86 1010.71 1010.12 1009.16 1008.44 1006.10 1004.37 1003.32 1002.26 1002.19 1001.74 1001.96 1002.61 1003.50 1004.49 1005.41 1006.41 1007.25 1008.28 1009.13 1009.82 1010.42 1011.03 1011.74 1012.38 1013.00 1013.39 1013.78 1014.17 1014.43 1014.77 1015.10 1015.46 1015.83 1016.16 1016.44 1016.68 1016.90 1017.09 1017.28 1017.32 1017.37 1017.36
1000.85 1002.37 1004.38 1006.76 1008.88 1009.13 1009.90 1010.65 1010.13 1008.87 1007.52 1005.91 1004.72 1002.97 1003.06 1001.70 1001.80 1002.09 1002.54 1003.29 1004.42 1005.24 1005.98 1006.77 1007.75 1008.40 1008.92 1009.53 1010.09 1010.83 1011.55 1012.22 1012.78 1013.11 1013.50 1013.82 1014.24 1014.68 1015.12 1015.49 1015.77 1016.01 1016.30 1016.52 1016.67 1016.97 1017.04 1017.28 1017.33
Wind_Speed
5 6 4 2 4 4 8 4 7 2 11 18 15 16 9 11 4 8 16 18 20 15 13 13 16 16 16 15 14 13 12 11 11 11 10 9 9 10 9 8 8 9 9 7 7 6 6 6 6
5 10 3 4 3 1 6 14 8 7 13 20 15 20 19 16 14 20 20 22 20 16 12 12 15 16 16 15 14 13 12 11 10 9 8 8 7 9 7 7 9 8 7 7 6 5 6 7 7
4 7 4 3 1 1 5 16 13 11 14 13 8 10 9 13 17 14 23 23 20 15 13 13 16 14 15 15 14 12 12 10 9 8 6 5 7 6 6 7 7 6 6 6 6 7 8 8 10
7 8 3 5 2 8 8 13 13 21 21 17 17 10 8 16 15 22 25 23 19 16 13 14 17 16 15 15 15 12 11 10 8 5 4 5 5 5 5 5 5 5 6 7 8 9 9 10 10
8 6 5 3 1 4 8 11 14 20 17 17 12 8 13 19 22 23 23 20 20 16 12 12 15 14 14 14 14 13 10 8 6 3 3 3 3 4 4 4 5 6 8 10 9 10 9 8 11
6 5 3 4 7 8 8 9 24 22 22 21 19 13 6 21 19 20 21 20 19 16 11 9 15 14 14 14 13 12 10 8 5 2 0 2 3 3 5 5 6 8 11 13 12 10 11 12 15
6 1 3 3 3 3 9 20 17 19 17 13 18 11 4 9 21 21 20 19 18 15 12 7 7 11 14 12 12 11 9 6 5 2 2 2 4 5 6 7 8 9 11 13 14 13 12 9 11
7 2 4 3 4 3 13 13 18 18 15 21 21 8 8 18 21 21 19 17 16 13 11 7 6 6 6 6 11 10 8 5 4 3 4 4 5 7 8 7 10 11 13 13 12 12 11 8 10
4 5 6 7 5 5 13 10 9 15 17 11 6 19 15 15 17 20 17 14 12 11 11 9 6 6 6 6 6 7 7 5 5 6 6 5 3 4 6 5 5 10 11 11 10 11 9 12 10
5 4 6 6 6 7 8 11 10 13 15 20 22 15 15 17 17 17 16 14 11 12 9 10 7 5 6 5 5 4 4 3 4 5 5 3 4 3 3 4 9 12 12 12 9 8 7 7 3
8 6 6 8 7 12 4 14 4 13 14 22 25 22 17 20 18 15 13 14 13 11 11 10 7 6 6 4 3 1 2 1 2 5 4 3 2 3 4 1 2 4 9 4 6 5 4 4 4
13 15 8 8 9 9 10 15 13 6 16 22 24 22 14 10 12 14 15 12 13 12 13 12 10 6 6 4 3 2 1 1 2 4 5 3 2 4 3 2 4 3 4 3 2 6 5 4 3
3 4 9 3 12 6 12 11 13 9 24 23 23 21 18 11 9 12 8 12 13 13 12 14 12 7 6 6 3 2 2 3 2 3 3 3 1 4 2 3 3 4 3 5 5 4 3 5 5
13 16 7 4 7 9 8 9 6 9 18 22 24 22 20 20 18 12 11 11 11 15 14 16 13 11 8 6 6 3 3 2 2 4 2 5 1 4 5 5 4 3 3 4 4 4 4 2 7
9 9 8 10 15 4 6 6 9 12 14 16 14 20 19 19 19 17 14 14 17 13 11 15 14 12 10 9 6 5 4 3 3 3 1 3 1 3 5 2 4 4 4 5 4 4 5 3 4
2 4 5 6 13 7 8 2 6 13 14 16 16 13 21 19 22 17 15 14 13 16 14 15 13 13 12 9 7 4 4 3 4 2 3 4 2 2 4 4 5 7 6 4 3 4 6 4 5
1 3 1 10 18 10 8 5 13 14 15 14 15 14 12 17 20 19 18 14 15 14 14 11 11 13 11 8 7 6 7 5 3 2 3 4 1 5 5 3 5 5 5 3 5 4 3 4 3
6 3 5 7 9 8 6 8 14 15 18 17 16 14 13 12 19 20 22 19 12 15 15 12 9 10 9 6 5 4 4 4 3 3 3 3 3 6 5 3 4 4 4 4 4 5 4 3 4
7 12 10 19 21 9 5 7 9 18 16 17 16 16 15 17 13 21 21 19 18 14 16 14 11 9 8 6 5 3 3 3 2 3 4 4 4 5 5 2 3 3 3 2 3 3 4 4 3
5 6 6 11 12 8 6 8 10 10 16 16 19 19 19 17 16 13 10 20 18 19 17 14 11 9 7 5 4 3 4 3 3 4 4 5 4 4 5 3 0 1 3 4 4 3 2 1 3
7 5 5 3 4 6 5 10 7 9 8 11 16 23 23 21 21 18 17 19 18 17 17 15 15 12 8 7 4 3 2 2 2 2 3 4 4 3 3 4 2 2 2 2 2 3 4 1 2
6 7 7 6 4 4 3 8 7 7 4 7 6 8 17 21 20 19 18 17 20 18 18 17 15 14 10 10 7 6 5 4 3 3 3 5 6 5 4 4 5 3 1 1 1 2 2 3 2
9 6 5 6 7 4 7 4 5 5 7 6 4 9 3 20 23 21 20 18 16 20 18 16 16 14 12 12 10 8 5 4 4 4 6 6 5 6 6 6 5 5 2 1 3 0 2 1 1
8 6 4 6 2 3 6 2 3 6 5 5 4 12 8 20 20 19 18 16 17 17 17 17 17 16 14 13 9 9 8 7 4 4 4 4 4 4 6 6 5 6 4 3 3 3 2 3 3
7 7 2 3 1 5 6 5 5 7 11 14 8 10 6 12 21 19 20 18 18 20 18 16 17 15 15 14 13 9 10 10 7 6 5 5 4 3 6 6 5 4 5 5 4 2 3 3 3
7 7 5 5 3 5 5 3 6 12 15 15 10 0 3 11 20 23 23 20 17 21 19 18 18 16 15 16 14 12 8 5 5 6 4 5 5 5 6 6 5 6 6 5 5 3 4 4 5
10 8 4 2 6 4 4 7 8 20 16 5 8 10 8 11 16 19 19 19 17 20 20 18 19 17 15 14 11 10 10 7 7 7 7 6 6 5 6 7 8 7 6 6 5 4 5 4 4
9 0 2 5 3 4 5 4 9 16 22 18 4 5 6 14 4 17 17 18 17 19 16 16 19 17 16 14 11 9 10 7 7 5 7 8 7 7 6 6 7 6 6 6 6 5 4 6 4
3 4 6 7 4 4 2 2 9 18 14 6 10 14 11 10 6 7 14 14 15 15 14 14 17 16 15 14 13 12 11 10 8 8 6 7 7 7 7 7 8 7 7 7 6 5 6 5 5
10 9 8 7 5 3 6 0 9 10 15 12 14 21 14 9 8 7 9 16 14 15 13 15 16 16 16 15 13 14 13 12 11 9 7 8 8 6 7 7 7 7 7 7 7 6 5 6 6
Wind_Direction
243 237 228 207 115 154 143 121 307 96 103 81 68 103 81 23 88 138 140 130 131 131 136 131 130 127 120 121 120 112 102 94 91 85 78 69 58 50 46 43 33 27 27 26 28 21 6 4 354
289 296 55 348 25 117 108 148 238 153 112 102 78 95 69 67 91 121 130 133 128 132 135 133 136 127 124 122 121 116 112 106 95 85 75 60 51 48 44 33 28 28 16 10 3 356 349 344 331
349 36 76 85 325 65 103 162 150 112 101 97 94 41 77 119 125 123 128 126 132 130 131 140 138 129 129 128 125 120 113 104 100 93 74 54 40 38 37 30 27 20 1 350 336 337 339 330 334
14 0 62 54 305 56 95 93 95 100 94 87 112 61 66 122 119 123 129 133 127 121 133 140 141 141 137 133 128 126 121 115 110 97 72 52 28 21 21 18 15 355 338 324 324 329 329 335 339
94 10 309 354 16 65 80 117 103 95 99 94 93 112 104 111 123 132 132 128 123 123 133 142 143 146 143 138 135 133 127 119 117 101 64 32 15 358 348 344 339 326 317 311 318 320 328 343 357
101 172 281 330 27 49 22 87 101 96 96 96 99 115 90 130 130 124 114 118 121 125 135 146 150 151 144 145 143 138 136 138 141 131 12 344 332 325 311 305 310 314 318 318 323 329 342 17 42
105 60 326 348 354 79 75 97 103 124 132 114 127 104 130 144 124 120 117 119 123 127 130 136 144 145 151 149 144 143 143 157 166 204 270 298 314 303 296 299 304 303 310 319 333 341 357 40 65
114 72 10 340 288 118 86 84 118 121 124 133 134 148 163 133 127 121 120 121 121 129 136 145 147 142 133 134 149 150 156 168 219 232 272 276 284 294 277 290 293 300 320 321 332 339 19 41 114
307 98 187 190 228 123 109 101 107 128 135 171 168 142 133 146 126 121 122 124 132 134 155 150 147 154 148 140 160 160 165 191 239 265 255 264 273 283 252 257 329 335 321 311 327 336 37 14 92
175 205 212 194 205 115 138 132 129 115 104 103 115 129 142 136 126 130 135 141 144 156 154 146 148 157 146 156 151 159 205 221 256 260 274 265 264 269 59 18 2 313 324 326 332 31 70 34 33
2 258 205 140 195 128 82 99 98 126 128 136 140 151 162 141 141 143 146 149 157 159 142 147 146 153 155 136 145 152 196 261 270 274 280 324 277 28 54 74 222 332 328 346 74 114 94 63 31
207 216 129 151 154 124 112 116 89 67 143 139 142 151 137 149 139 157 154 164 158 149 148 153 151 166 141 135 140 135 48 321 318 347 323 315 348 34 29 256 226 279 294 34 61 42 27 108 214
260 45 103 133 118 110 113 111 108 101 134 137 141 143 145 152 158 153 173 157 152 156 169 151 158 162 154 141 154 152 220 244 353 345 357 19 2 18 84 330 297 227 277 37 92 33 14 104 79
356 352 132 216 108 114 114 114 95 111 122 137 146 155 162 169 174 168 173 167 168 167 184 157 165 167 154 152 164 192 240 264 354 315 326 20 81 42 27 7 340 10 13 49 69 85 30 80 92
292 2 351 27 21 308 98 80 132 133 131 136 153 167 172 174 171 182 184 183 171 174 176 159 159 170 160 157 166 175 210 238 260 270 315 359 25 48 53 16 2 10 349 69 76 50 54 45 75
321 344 15 309 337 303 94 186 162 151 148 157 165 171 172 183 179 181 186 174 178 174 168 163 160 172 160 163 169 170 193 214 238 271 244 246 165 72 48 22 17 1 336 88 56 63 61 35 65
73 177 28 1 297 289 236 218 186 169 162 171 169 175 174 168 179 182 180 182 180 162 166 171 162 171 164 156 164 168 186 208 213 244 253 256 189 73 103 326 50 352 11 13 70 49 79 81 45
200 227 200 167 275 251 231 239 173 191 175 178 172 173 172 175 178 175 181 185 166 156 168 172 166 170 154 152 152 179 182 205 182 221 204 180 95 83 108 37 54 35 350 9 44 71 31 79 105
199 220 148 191 245 247 239 274 221 196 193 179 179 177 178 179 177 178 187 181 171 163 168 172 160 176 154 168 165 176 176 196 195 202 205 174 130 108 108 59 53 18 2 282 71 82 64 46 107
282 312 278 206 228 175 263 260 264 182 198 180 184 177 181 174 175 173 159 162 166 164 169 168 172 158 167 168 156 155 165 193 191 184 176 181 152 124 136 168 239 51 359 43 63 59 64 52 192
235 239 293 321 1 344 295 264 269 258 210 194 192 180 182 174 177 171 168 166 160 169 173 171 174 170 166 164 149 152 137 180 165 177 167 184 179 183 158 168 180 234 91 53 25 82 89 35 309
243 181 247 310 337 259 254 275 321 268 156 349 21 117 192 181 176 168 169 163 173 175 177 175 169 174 178 168 171 164 166 170 202 173 173 185 184 197 212 216 194 219 140 348 13 98 102 87 333
232 164 227 275 278 311 4 28 270 35 29 330 27 359 221 189 176 172 175 170 166 174 179 172 167 170 180 177 179 174 176 180 192 177 176 200 181 188 210 214 211 205 175 255 286 13 120 161 226
149 160 246 268 256 346 334 105 347 5 200 221 214 200 251 176 178 169 174 171 174 164 162 166 169 175 176 181 175 175 181 192 196 198 186 183 195 201 201 208 194 188 191 222 269 251 225 258 262
215 133 287 322 292 221 297 44 272 310 291 310 277 233 159 152 168 178 179 180 175 169 171 164 168 168 177 182 186 183 182 194 196 182 177 175 192 205 206 203 199 190 193 208 233 251 243 240 252
277 188 186 232 230 211 2 210 248 344 346 338 57 18 313 151 171 182 184 183 174 169 174 171 175 178 175 178 186 192 180 178 187 184 176 190 191 199 192 198 191 204 201 203 221 231 236 234 252
261 293 244 22 321 36 137 345 325 337 347 320 100 109 294 268 180 183 179 181 171 171 180 178 175 178 180 179 175 177 189 177 186 196 187 191 196 198 207 197 201 198 195 195 209 229 233 228 209
179 104 1 14 50 351 65 154 153 297 281 284 337 211 330 269 130 178 185 182 173 176 180 174 171 176 181 181 176 180 184 180 184 194 195 182 192 191 188 175 188 187 200 204 207 228 233 210 221
114 111 47 94 141 142 325 226 188 206 229 260 265 271 293 212 129 130 182 178 173 170 171 166 165 175 181 183 182 187 186 191 189 203 202 191 189 188 184 181 188 186 186 200 202 208 225 205 203
181 169 139 120 245 194 153 64 359 286 335 336 331 313 301 147 146 138 120 163 165 172 171 165 171 179 184 188 187 188 183 187 197 202 195 186 183 189 183 181 183 189 188 193 199 202 204 199 190